Weather History for KHCD - November, 2012

Change the Weather History Date:

Wednesday, November 28, 2012

  Actual Average Record
Temperature  
Mean Temperature 31 °F -  
Max Temperature 36 °F 30 °F 53 °F (1998)
Min Temperature 26 °F 13 °F -15 °F (1985)
Degree Days  
Heating Degree Days 34    
Moisture  
Dew Point 26 °F    
Average Humidity 81    
Maximum Humidity 90    
Minimum Humidity 72    
Precipitation  
Precipitation 0.00 in - - ()
Sea Level Pressure  
Sea Level Pressure 30.21 in    
Wind  
Wind Speed 7 mph (SSW)    
Max Wind Speed 14 mph    
Max Gust Speed 20 mph    
Visibility 10 miles    
Events      
Averages and records for this station are not official NWS values.
T = Trace of Precipitation, MM = Missing Value Source: NWS Daily Summary

Daily Weather History Graph

Daily Weather History Graph

Search for Another Location

Airport or City:

Trip Planner

Search our weather history database for the weather conditions in past years. The results will help you decide how hot, cold, wet, or windy it might be!

Date:

Astronomy

Nov. 28, 2012 Rise Set
Actual Time 7:32 AM CST 4:38 PM CST
Civil Twilight 6:59 AM CST 5:11 PM CST
Nautical Twilight 6:22 AM CST 5:48 PM CST
Astronomical Twilight 5:47 AM CST 6:23 PM CST
Moon 4:54 PM CST (11/28) 7:30 AM CST (11/28)
Length of Visible Light 10h 12m
Length of Day
9h 06m
Full, 100% of the Moon is Illuminated
Nov 28
Full
Dec 6
Last Quarter
Dec 13
New
Dec 19
First Quarter
Dec 28
Full

Hourly Weather History & Observations

Time (CST) Temp. Windchill Dew Point Humidity Pressure Visibility Wind Dir Wind Speed Gust Speed Precip Events Conditions
12:08 AM 26.6 °F 16.2 °F 23.9 °F 90% 30.25 in 10.0 mi NW 11.5 mph - N/A   Overcast
12:29 AM 26.6 °F 16.8 °F 23.9 °F 90% 30.26 in 10.0 mi NW 10.4 mph - N/A   Overcast
12:49 AM 26.6 °F 15.2 °F 23.5 °F 88% 30.27 in 10.0 mi NNW 13.8 mph 19.6 mph N/A   Overcast
1:09 AM 26.8 °F 17.7 °F 23.5 °F 88% 30.27 in 10.0 mi NW 9.2 mph - N/A   Overcast
1:28 AM 29.3 °F 20.2 °F 25.7 °F 86% 30.28 in 10.0 mi NW 10.4 mph - N/A   Overcast
1:49 AM 29.3 °F 19.6 °F 25.5 °F 86% 30.28 in 10.0 mi NW 11.5 mph - N/A   Overcast
2:09 AM 29.3 °F 19.6 °F 25.3 °F 85% 30.28 in 10.0 mi NW 11.5 mph - N/A   Overcast
2:28 AM 29.3 °F 20.8 °F 25.3 °F 85% 30.28 in 10.0 mi NW 9.2 mph - N/A   Overcast
2:48 AM 29.3 °F 21.5 °F 25.3 °F 85% 30.29 in 10.0 mi NW 8.1 mph - N/A   Overcast
3:09 AM 29.3 °F 21.5 °F 25.2 °F 85% 30.28 in 10.0 mi NW 8.1 mph - N/A   Overcast
3:29 AM 29.3 °F 24.3 °F 25.2 °F 85% 30.29 in 10.0 mi WNW 4.6 mph - N/A   Overcast
3:48 AM 29.3 °F 23.2 °F 24.8 °F 83% 30.29 in 10.0 mi WNW 5.8 mph - N/A   Overcast
4:09 AM 29.3 °F 25.6 °F 25.2 °F 85% 30.29 in 10.0 mi West 3.5 mph - N/A   Overcast
4:28 AM 29.3 °F 24.3 °F 25.3 °F 85% 30.29 in 10.0 mi West 4.6 mph - N/A   Overcast
4:48 AM 29.3 °F - 25.5 °F 86% 30.29 in 10.0 mi Calm Calm - N/A   Overcast
5:08 AM 27.3 °F 23.4 °F 24.3 °F 88% 30.29 in 10.0 mi WNW 3.5 mph - N/A   Overcast
5:28 AM 29.3 °F - 26.1 °F 88% 30.30 in 10.0 mi Calm Calm - N/A   Overcast
5:49 AM 26.8 °F 22.8 °F 23.7 °F 88% 30.31 in 10.0 mi WSW 3.5 mph - N/A   Overcast
6:09 AM 26.6 °F 20.0 °F 23.9 °F 90% 30.31 in 10.0 mi WSW 5.8 mph - N/A   Overcast
6:29 AM 29.3 °F 23.2 °F 26.1 °F 88% 30.31 in 10.0 mi West 5.8 mph - N/A   Overcast
6:49 AM 28.0 °F 20.8 °F 24.8 °F 88% 30.32 in 10.0 mi West 6.9 mph - N/A   Overcast
7:09 AM 26.6 °F 21.2 °F 23.7 °F 89% 30.32 in 10.0 mi WSW 4.6 mph - N/A   Overcast
7:28 AM 26.6 °F 22.6 °F 23.7 °F 89% 30.32 in 10.0 mi West 3.5 mph - N/A   Overcast
7:49 AM 29.3 °F 24.3 °F 25.7 °F 86% 30.32 in 10.0 mi WSW 4.6 mph - N/A   Overcast
8:08 AM 29.3 °F - 25.5 °F 86% 30.31 in 10.0 mi Calm Calm - N/A   Overcast
8:29 AM 29.3 °F 25.6 °F 25.5 °F 86% 30.31 in 10.0 mi West 3.5 mph - N/A   Overcast
8:49 AM 29.3 °F - 25.2 °F 85% 30.30 in 10.0 mi Calm Calm - N/A   Mostly Cloudy
9:08 AM 29.3 °F - 24.8 °F 83% 30.31 in 10.0 mi Calm Calm - N/A   Scattered Clouds
9:25 AM 29.3 °F 24.3 °F 24.4 °F 82% 30.31 in 10.0 mi SSW 4.6 mph - N/A   Clear
9:49 AM 29.3 °F 24.3 °F 23.9 °F 80% 30.31 in 10.0 mi SW 4.6 mph - N/A   Clear
10:09 AM 30.0 °F 24.1 °F 24.3 °F 79% 30.31 in 10.0 mi SSW 5.8 mph - N/A   Scattered Clouds
10:29 AM 31.3 °F 24.7 °F 25.2 °F 78% 30.31 in 10.0 mi South 6.9 mph - N/A   Scattered Clouds
10:47 AM 31.8 °F 24.6 °F 25.2 °F 76% 30.31 in 10.0 mi SW 8.1 mph - N/A   Clear
11:07 AM 32.4 °F 26.0 °F 25.3 °F 75% 30.31 in 10.0 mi SSW 6.9 mph - N/A   Clear
11:29 AM 31.8 °F 25.4 °F 24.8 °F 75% 30.29 in 10.0 mi South 6.9 mph - N/A   Clear
11:48 AM 34.0 °F 28.0 °F 26.6 °F 74% 30.28 in 10.0 mi SSW 6.9 mph - N/A   Clear
12:09 PM 34.0 °F 27.2 °F 26.4 °F 74% 30.27 in 10.0 mi SSW 8.1 mph - N/A   Clear
12:29 PM 34.0 °F 28.0 °F 26.4 °F 74% 30.26 in 10.0 mi SSW 6.9 mph - N/A   Clear
12:49 PM 34.0 °F 26.6 °F 26.6 °F 74% 30.25 in 10.0 mi SSW 9.2 mph - N/A   Clear
1:08 PM 34.0 °F 28.0 °F 26.6 °F 74% 30.24 in 10.0 mi South 6.9 mph - N/A   Clear
1:28 PM 34.0 °F 25.5 °F 26.6 °F 74% 30.23 in 10.0 mi South 11.5 mph - N/A   Clear
1:48 PM 35.2 °F 29.5 °F 27.9 °F 74% 30.21 in 10.0 mi SSW 6.9 mph - N/A   Clear
2:09 PM 34.9 °F 28.3 °F 27.5 °F 74% 30.20 in 10.0 mi South 8.1 mph - N/A   Clear
2:29 PM 35.2 °F 28.8 °F 27.5 °F 73% 30.18 in 10.0 mi South 8.1 mph - N/A   Clear
2:49 PM 35.6 °F 28.6 °F 27.9 °F 73% 30.16 in 10.0 mi South 9.2 mph - N/A   Clear
3:09 PM 36.5 °F 30.3 °F 28.4 °F 72% 30.15 in 10.0 mi South 8.1 mph - N/A   Clear
3:28 PM 36.5 °F 29.7 °F 28.4 °F 72% 30.14 in 10.0 mi South 9.2 mph - N/A   Clear
3:49 PM 35.1 °F 31.0 °F 27.3 °F 73% 30.13 in 10.0 mi South 4.6 mph - N/A   Clear
4:09 PM 34.3 °F 30.2 °F 26.8 °F 74% 30.13 in 10.0 mi SSE 4.6 mph - N/A   Clear
4:28 PM 34.0 °F - 26.4 °F 74% 30.13 in 10.0 mi Calm Calm - N/A   Clear
4:49 PM 34.0 °F 29.8 °F 27.0 °F 75% 30.12 in 10.0 mi SSE 4.6 mph - N/A   Clear
5:08 PM 31.8 °F 28.5 °F 25.3 °F 77% 30.12 in 10.0 mi SSE 3.5 mph - N/A   Clear
5:29 PM 34.0 °F 31.0 °F 27.5 °F 77% 30.11 in 10.0 mi SSE 3.5 mph - N/A   Clear
5:48 PM 31.8 °F 26.2 °F 25.5 °F 78% 30.11 in 10.0 mi SE 5.8 mph - N/A   Clear
6:08 PM 31.8 °F 26.2 °F 25.7 °F 78% 30.11 in 10.0 mi SE 5.8 mph - N/A   Clear
6:28 PM 31.8 °F 26.2 °F 25.5 °F 78% 30.10 in 10.0 mi SE 5.8 mph - N/A   Clear
6:49 PM 31.8 °F 25.4 °F 25.9 °F 79% 30.10 in 10.0 mi SE 6.9 mph - N/A   Clear
6:50 PM 31.8 °F 25.4 °F 25.9 °F 79% 30.10 in 10.0 mi SE 6.9 mph - N/A   Clear
7:30 PM 32.0 °F 27.5 °F 26.6 °F 80% 30.10 in 10.0 mi SE 4.6 mph - N/A   Clear
7:50 PM 32.0 °F 27.5 °F 26.6 °F 80% 30.10 in 10.0 mi ESE 4.6 mph - N/A   Clear
8:10 PM 32.0 °F 27.5 °F 26.6 °F 80% 30.09 in 10.0 mi SE 4.6 mph - N/A   Clear
8:30 PM 32.0 °F - 26.6 °F 80% 30.10 in 10.0 mi Calm Calm - N/A   Clear
8:50 PM 32.0 °F 28.7 °F 26.6 °F 80% 30.10 in 10.0 mi SE 3.5 mph - N/A   Clear
9:10 PM 32.0 °F 26.4 °F 26.6 °F 80% 30.08 in 10.0 mi ESE 5.8 mph - N/A   Clear
9:30 PM 32.0 °F 27.5 °F 26.6 °F 80% 30.08 in 10.0 mi ESE 4.6 mph - N/A   Clear
9:50 PM 32.0 °F 27.5 °F 26.6 °F 80% 30.07 in 10.0 mi SE 4.6 mph - N/A   Scattered Clouds
10:10 PM 30.2 °F 26.7 °F 24.8 °F 80% 30.07 in 10.0 mi ESE 3.5 mph - N/A   Scattered Clouds
10:15 PM 30.2 °F 25.4 °F 25.3 °F 82% 30.07 in 10.0 mi ESE 4.6 mph - N/A   Scattered Clouds
10:28 PM 29.3 °F 25.6 °F 24.6 °F 83% 30.06 in 10.0 mi ESE 3.5 mph - N/A   Clear
10:49 PM 29.3 °F 24.3 °F 24.8 °F 83% 30.06 in 10.0 mi SE 4.6 mph - N/A   Clear
11:08 PM 29.3 °F 23.2 °F 25.2 °F 85% 30.05 in 10.0 mi SE 5.8 mph - N/A   Clear
11:29 PM 29.7 °F - 25.2 °F 83% 30.06 in 10.0 mi Calm Calm - N/A   Clear
11:49 PM 30.6 °F 27.1 °F 25.3 °F 81% 30.06 in 10.0 mi SE 3.5 mph - N/A   Clear